Simultaneous Nadir Overpasses (SNOs) Predictions

Prediction of SNOs between GOES-15 and METOP-C Satellite Orbit:

Table of predicted SNOs for the next 14.0 days since TLE Epoch: 11/23/2024
Index Date Time (GOES-15) GOES-15 Lat,Lon METOP-C Lat,Lon Distance(km) Time Diff (sec)
1 11/23/2024 17:05:03 0.19, 61.70 1.17, 66.02 493.34 80
2 11/25/2024 05:23:55 -0.18, 61.57 -0.13, 61.46 13.47 80
3 11/27/2024 17:22:17 0.18, 61.63 0.20, 61.86 25.81 80
4 11/29/2024 05:41:11 -0.17, 61.53 0.77, 57.29 483.26 80
5 11/30/2024 05:23:11 -0.17, 61.52 -0.32, 62.29 87.04 80
6 12/01/2024 17:42:11 0.16, 61.59 -0.72, 57.69 443.87 80
7 12/02/2024 17:18:53 0.16, 61.59 0.43, 62.68 124.98 80
8 12/04/2024 05:37:45 -0.15, 61.51 0.58, 58.12 386.13 80
9 12/05/2024 05:19:46 -0.15, 61.51 -0.52, 63.11 183.53 80
10 12/06/2024 17:38:45 0.13, 61.58 -0.54, 58.53 347.07 80
